Regional Weather Roundup
Issued by NWS

Home | Current Version | Previous Version | Text Only | Print | Product List | Glossary On
Versions: 1 2 3 4 5 6 7 8 9 10 11 12 13 14 15 16 17 18 19 20 21 22 23 24 25 26 27 28 29 30 31 32 33 34 35 36 37 38 39 40 41 42 43 44 45 46 47 48 49 50
000
ASUS43 KMKX 311021
RWRWI

WISCONSIN REGIONAL WEATHER ROUNDUP
NATIONAL WEATHER SERVICE MILWAUKEE/SULLIVAN WI
500 AM CDT SUN AUG 31 2014

NOTE: "FAIR" INDICATES FEW OR NO CLOUDS BELOW 12,000 FEET WITH NO
SIGNIFICANT WEATHER AND/OR OBSTRUCTIONS TO VISIBILITY.

WIZ001-002-006>008-014>016-023>028-311100-
NORTHWEST WISCONSIN

CITY           SKY/WX    TMP DP  RH WIND       PRES   REMARKS
SUPERIOR ARPT  CLOUDY    58  57  98 E3        29.88F
ASHLAND        CLOUDY    51  51 100 CALM      29.93S FOG
HAYWARD        CLEAR     54  53  97 CALM      29.92S
SIREN          CLEAR     58  56  96 SE5       29.88F
RICE LAKE      CLEAR     57  55  94 E5        29.91S
LADYSMITH      CLEAR     54  53  96 E3        29.93F
EAU CLAIRE     PTCLDY    56  56 100 NE5       29.89S
MENOMONIE      FOG       57  57  99 CALM      29.90S VSB 1/4
NEW RICHMOND   CLEAR     58  58 100 E5        29.87F
OSCEOLA        CLOUDY    60  60 100 E6        29.89F
$$

WIZ003>005-009-010-017-018-311100-
NORTH CENTRAL WISCONSIN

CITY           SKY/WX    TMP DP  RH WIND       PRES   REMARKS
WOODRUFF       FOG       52  51  95 CALM      29.95S VSB 1/2
RHINELANDER    FOG       51  51 100 CALM      29.96R VSB 1/4
EAGLE RIVER    FOG       52  52 100 CALM      29.96R VSB 1/2
LAND O LAKES   FOG       54  54 100 CALM      29.96S VSB 1/4
PHILLIPS       FOG       50  50 100 CALM      29.92F VSB 1
TOMAHAWK       FOG       49  48  97 CALM      29.95S VSB<1/4
MEDFORD        CLOUDY    55  55  99 E5        29.93F
MERRILL        FOG       52  52 100 CALM      29.95R VSB<1/4
$$

WIZ029-030-035-036-043>047-311100-
CENTRAL WISCONSIN

CITY           SKY/WX    TMP DP  RH WIND       PRES   REMARKS
WAUSAU         CLOUDY    60  57  89 E3        29.92F
MOSINEE        CLOUDY    59  59 100 E3        29.95S
MARSHFIELD     MOCLDY    61  58  90 E5        29.93S
STEVENS POINT  CLOUDY    60  59  97 CALM      29.94S
WAUPACA        CLOUDY    64  63  94 CALM      29.94S
WAUTOMA        CLOUDY    65  64  96 CALM      29.93F
WISC RAPIDS    CLOUDY    60  60 100 CALM      29.95R FOG
CAMP DOUGLAS   PTCLDY    61  61 100 CALM      29.92S
$$

WIZ011>013-019>022-031-037>040-048>050-311100-
NORTHEAST WISCONSIN

CITY           SKY/WX    TMP DP  RH WIND       PRES   REMARKS
ANTIGO         CLOUDY    52  52 100 CALM      29.95S
STURGEON BAY   CLOUDY    61  57  88 W3        29.93R
GREEN BAY      CLOUDY    63  60  90 NW3       29.94R
MANITOWOC      CLOUDY    64  63  96 CALM      29.93R
APPLETON       CLOUDY    63  61  94 N3        29.94R
CLINTONVILLE   CLOUDY    63  59  88 CALM      29.93S
OSHKOSH        CLOUDY    64  63  96 NW3       29.92R
$$

WIZ032>034-041-042-053>061-311100-
SOUTHWEST WISCONSIN

CITY           SKY/WX    TMP DP  RH WIND       PRES   REMARKS
LA CROSSE      CLOUDY    64  62  93 E6        29.90F
SPARTA         CLOUDY    60  59  97 CALM      29.92F
VIROQUA        PTSUNNY   63  63 100 E5        29.93S
BOSCOBEL       FOG       66  64  93 CALM      29.91F VSB 1/4
PRAIRIE DU CHI FOG       62  61  94 CALM      29.90F VSB 1
PLATTEVILLE    FAIR      62  62  97 CALM      29.93S
$$

WIZ056-057-062-063-064-067-068-311100-
SOUTH CENTRAL WISCONSIN

CITY           SKY/WX    TMP DP  RH WIND       PRES   REMARKS
BARABOO/DELLS  CLOUDY    65  63  93 CALM      29.92S
LONE ROCK      FOG       69  65  86 S3        29.91F VSB 1/4
WATERTOWN      FOG       61  61 100 CALM      29.92R VSB 1/4
MADISON        FOG       61  60  97 CALM      29.92S VSB 1
MIDDLETON      CLOUDY    60  60 100 CALM      29.93S VSB<1/4
MONROE         PTCLDY    64  64 100 SW6       29.93S
JANESVILLE       N/A     61  59  94 CALM      29.92R FOG
$$

WIZ051-052-058>065-066-070>072-311100-
SOUTHEAST WISCONSIN

CITY           SKY/WX    TMP DP  RH WIND       PRES   REMARKS
MILWAUKEE      MOCLDY    64  63  96 CALM      29.92R
WAUKESHA       FOG       61  61 100 CALM      29.94S VSB 1/4
MILWAUKEE/TIMM FOG       64  63  94 CALM      29.94R VSB 1/2
RACINE         CLEAR     65  64  97 W3        29.94R
BURLINGTON     FOG       59  59 100 CALM      29.93R VSB 1/2
KENOSHA        CLEAR     62  62 100 SW3       29.93S FOG
FOND DU LAC    PTCLDY    63  61  93 CALM      29.93R
SHEBOYGAN      CLOUDY    65  63  93 E3        29.93R
WEST BEND      CLOUDY    63  61  94 CALM      29.93R FOG
JUNEAU         FOG       61  61 100 CALM      29.93S VSB<1/4
$$

LSZ147-162-311100-
LAKE SUPERIOR

STATION/POSITION TIME  TEMP    WIND        PRES    WAVE
                       AIR SEA DIR/SP/G            HT/PER
                 (UTC) (F)     (DEG/KT/KT) (MB)    (FT/S)
W MID LAKE BUOY  0950   58 58  330/  4/  4 1013.4S   0
DEVILS ISLAND    1000   59     120/  6/  6 1013.2F
PORT WING        0900   55     120/  2/  3 1013.5S
SAXON HARBOR     0900   53     210/  2/  4 1014.2R
$$

LMZ867-665-643>646-311100-
LAKE MICHIGAN

STATION/POSITION TIME  TEMP    WIND        PRES    WAVE
                       AIR SEA DIR/SP/G            HT/PER
                 (UTC) (F)     (DEG/KT/KT) (MB)    (FT/S)
N MID LAKE BUOY  0950   62 65  310/  6/  6 1012.3R   2/ 3
NORTHPORT PIER   0900   63     330/  6/  9 1012.2S
SISTER BAY       0856   63        CALM       N/A
KEWAUNEE LAKESHO 0900   61      CALM  /  1 1012.0R
SHEBOYGAN LAKESH 1000   63 51  360/  2/  3 1013.5R
ATWATER BUOY     1000   67     300/  2/  4 1014.4R
MILWAUKEE LAKESH 1000   67      30/  4/  4   N/A
S MID LAKE BUOY  0950   70 69  230/  6/  8 1012.9R   1
KENOSHA   LAKESH 1000   66     220/  3/  4 1013.2R
$$

TC  - TEMPERATURE IN CELSIUS
VSB - VISIBILITY IN STATUTE MILES
WCI - WIND CHILL INDEX
HX  - HEAT INDEX




USA.gov is the U.S. government's official web portal to all federal, state and local government web resources and services.